Temp
13 12 12 12 12 12 12 11 11 11 11 11 11 11 11 11 11 11 11 10 10 10 10 10 10 10 10 11 11 11 11 11 11 11 11 11 11 11 10 10 10 10
12 12 12 12 12 12 12 12 11 11 11 11 11 11 11 11 11 11 11 10 11 11 11 10 10 10 11 11 11 11 11 11 11 11 11 11 11 11 11 11 11 10
13 13 12 12 12 12 12 12 12 11 11 11 11 11 11 11 11 11 11 11 11 11 11 11 11 10 10 11 11 11 11 11 11 11 11 11 11 11 11 11 11 11
13 13 13 12 12 12 12 12 12 12 11 11 11 11 11 11 11 11 11 11 11 11 11 11 11 11 10 11 11 11 11 11 11 11 11 11 11 11 11 11 11 11
13 13 13 12 12 12 12 12 12 12 12 12 11 11 11 11 11 11 11 11 11 11 11 11 11 11 11 11 11 11 12 12 11 11 11 11 11 11 11 11 11 11
13 13 13 13 12 12 12 12 12 12 12 12 12 12 12 12 11 11 11 11 11 11 11 11 11 11 11 11 11 11 11 12 11 11 11 11 11 11 11 11 11 11
13 13 13 13 13 12 12 12 12 12 12 12 12 12 12 12 12 11 11 11 11 11 11 11 11 11 11 11 11 11 12 12 12 12 12 11 11 11 11 11 11 11
13 13 13 13 13 13 12 12 12 13 12 12 12 12 12 12 12 12 12 12 11 12 12 12 12 12 12 12 12 12 12 12 12 12 12 12 11 11 11 11 11 11
14 13 13 13 13 13 13 13 13 13 13 13 12 12 12 12 12 12 12 12 12 12 12 12 12 12 12 12 12 12 12 12 12 12 12 12 12 12 11 11 12 12
14 14 13 13 13 13 13 13 13 13 13 13 13 13 13 13 13 12 12 12 12 12 12 12 12 12 12 12 12 12 12 12 12 12 13 12 12 12 12 12 12 12
14 14 14 14 13 13 13 13 13 13 13 13 13 13 13 13 13 13 13 13 13 13 13 12 12 12 12 12 12 12 12 12 12 13 13 13 12 12 12 12 12 12
15 14 14 14 14 14 13 13 13 13 13 13 13 13 13 13 13 13 13 13 13 13 13 13 12 12 12 12 12 12 12 12 12 13 13 13 13 13 12 12 12 12
15 15 15 15 14 14 14 13 13 13 13 13 13 13 13 13 13 13 13 13 13 13 13 13 13 13 12 12 12 12 12 12 12 13 13 13 13 13 13 13 13 13
15 15 15 15 14 14 14 14 13 13 13 13 13 13 13 13 13 13 13 13 13 13 13 13 13 13 13 13 12 12 13 13 12 13 13 13 13 13 13 13 13 13
15 15 15 15 14 14 14 14 14 13 13 13 13 13 13 13 13 13 13 13 13 13 13 13 13 13 13 13 13 12 13 13 12 12 12 13 13 13 13 13 13 13
15 15 15 15 15 14 14 14 14 14 14 14 14 13 13 13 13 13 13 13 13 13 13 13 13 14 13 13 13 12 12 13 13 13 12 13 13 12 12 13 13 13
15 15 15 15 15 15 14 14 14 14 14 14 14 14 13 13 13 13 13 13 13 13 13 13 13 14 14 13 13 12 12 12 13 13 13 13 13 12 12 12 12 12
16 15 15 15 15 15 15 14 14 14 14 14 14 14 14 13 13 13 13 13 13 13 13 13 13 14 14 13 13 12 12 12 12 13 13 13 13 13 12 12 12 12
16 16 15 15 15 15 15 14 14 14 14 14 14 14 14 14 14 14 14 13 13 13 13 13 13 14 14 13 13 13 12 12 12 12 13 13 13 12 12 12 12 12
16 16 15 15 15 15 15 15 14 14 14 14 14 14 14 14 14 14 14 14 13 13 14 13 13 14 14 13 13 13 12 12 12 12 12 13 13 12 12 12 12 12
16 16 16 15 15 15 15 15 15 14 14 14 14 14 14 14 14 14 14 14 14 13 14 14 13 13 14 13 13 13 13 12 12 12 12 13 13 13 12 12 12 12
16 16 16 15 15 15 15 14 14 14 14 14 14 14 14 14 14 14 14 14 14 13 14 14 13 13 14 14 13 13 12 12 12 12 12 13 13 13 12 12 12 12
16 16 16 16 15 15 15 14 14 14 14 14 14 14 14 14 14 14 14 14 14 14 14 14 14 14 14 14 13 13 13 12 13 13 13 13 13 13 13 12 12 12
16 16 16 16 15 15 15 14 14 14 14 14 14 14 14 14 14 14 14 14 14 14 14 13 13 14 14 14 14 13 13 13 13 13 13 13 13 13 13 13 13 13
16 16 16 16 15 15 14 14 14 14 14 14 14 14 14 14 14 14 14 14 14 14 14 13 13 13 14 14 14 14 13 13 13 13 13 13 13 13 13 13 13 13
16 16 16 16 15 15 14 14 14 14 14 14 14 14 14 14 14 14 14 14 14 14 14 14 14 14 14 14 14 14 13 13 13 13 13 13 13 13 13 13 13 13
Height
3204 3206 3209 3211 3213 3215 3217 3218 3220 3222 3223 3225 3226 3228 3229 3230 3231 3232 3233 3234 3235 3236 3237 3238 3239 3240 3241 3242 3243 3243 3244 3245 3245 3246 3246 3247 3247 3248 3248 3249 3249 3249
3203 3205 3207 3209 3211 3213 3215 3217 3219 3220 3222 3223 3225 3226 3227 3229 3230 3231 3232 3233 3234 3235 3236 3237 3238 3239 3240 3241 3242 3243 3244 3245 3245 3246 3246 3247 3247 3248 3248 3249 3249 3250
3201 3203 3205 3207 3209 3212 3214 3215 3217 3218 3220 3222 3223 3224 3226 3228 3229 3230 3231 3232 3233 3234 3235 3236 3237 3238 3239 3240 3241 3242 3243 3244 3245 3245 3246 3247 3247 3248 3248 3249 3249 3250
3199 3201 3203 3206 3208 3210 3212 3213 3215 3217 3218 3220 3221 3223 3225 3226 3227 3228 3229 3231 3232 3233 3234 3235 3236 3237 3238 3239 3240 3241 3242 3243 3244 3245 3245 3246 3247 3247 3248 3249 3249 3249
3197 3199 3201 3204 3206 3208 3210 3211 3213 3215 3216 3218 3220 3221 3223 3224 3226 3227 3228 3229 3231 3232 3233 3234 3235 3236 3237 3237 3238 3239 3241 3242 3243 3244 3245 3245 3246 3247 3247 3248 3248 3249
3195 3197 3199 3202 3204 3206 3207 3209 3211 3213 3214 3216 3218 3219 3221 3223 3224 3226 3227 3228 3230 3231 3231 3232 3233 3234 3235 3236 3237 3238 3239 3240 3241 3243 3244 3244 3245 3246 3247 3247 3248 3248
3193 3195 3197 3200 3202 3203 3206 3207 3209 3211 3213 3214 3216 3217 3219 3221 3223 3224 3225 3227 3228 3229 3230 3230 3231 3232 3233 3234 3235 3236 3238 3239 3240 3241 3242 3243 3244 3245 3246 3246 3247 3247
3191 3193 3195 3197 3199 3201 3203 3205 3207 3209 3211 3212 3214 3215 3217 3219 3221 3222 3224 3225 3227 3227 3228 3229 3230 3231 3232 3232 3233 3235 3236 3237 3238 3240 3241 3242 3243 3244 3245 3245 3245 3246
3188 3191 3193 3195 3197 3199 3201 3203 3205 3207 3209 3210 3212 3214 3215 3217 3219 3220 3222 3223 3225 3225 3227 3228 3228 3230 3230 3231 3232 3233 3234 3236 3236 3238 3239 3240 3241 3242 3243 3244 3244 3245
3186 3188 3191 3193 3195 3197 3199 3201 3203 3205 3207 3208 3210 3212 3213 3215 3217 3218 3220 3221 3223 3224 3225 3226 3227 3228 3229 3229 3230 3232 3233 3234 3234 3236 3237 3238 3240 3241 3241 3242 3243 3244
3183 3185 3188 3190 3193 3195 3197 3199 3201 3202 3204 3206 3208 3210 3211 3213 3215 3216 3218 3219 3221 3222 3223 3225 3226 3227 3227 3228 3229 3230 3231 3232 3232 3233 3235 3236 3237 3239 3240 3240 3241 3242
3180 3183 3185 3188 3190 3192 3195 3197 3199 3200 3202 3204 3206 3208 3209 3211 3213 3214 3215 3217 3219 3220 3222 3223 3224 3225 3226 3227 3227 3228 3229 3230 3230 3231 3233 3234 3235 3236 3237 3238 3239 3240
3178 3180 3182 3185 3187 3190 3192 3195 3196 3198 3200 3201 3204 3206 3207 3209 3211 3212 3214 3215 3217 3219 3220 3221 3222 3223 3224 3225 3226 3226 3227 3228 3229 3229 3230 3231 3233 3234 3235 3236 3237 3238
3176 3178 3180 3182 3185 3187 3190 3192 3194 3196 3198 3199 3201 3203 3205 3207 3209 3210 3212 3213 3215 3217 3218 3219 3220 3221 3222 3223 3224 3225 3225 3227 3227 3228 3228 3229 3230 3231 3232 3234 3235 3236
3174 3176 3178 3180 3182 3184 3186 3189 3191 3193 3195 3197 3199 3201 3203 3204 3206 3208 3209 3211 3212 3214 3216 3217 3218 3219 3220 3221 3223 3223 3224 3225 3226 3226 3226 3227 3228 3229 3230 3231 3233 3234
3172 3173 3175 3177 3179 3181 3183 3186 3188 3190 3192 3194 3196 3199 3200 3202 3204 3205 3207 3208 3210 3212 3213 3214 3215 3217 3218 3220 3221 3222 3223 3223 3224 3225 3225 3225 3226 3227 3228 3229 3230 3231
3169 3171 3173 3174 3176 3179 3181 3183 3185 3187 3190 3191 3194 3196 3198 3199 3201 3202 3204 3206 3207 3209 3210 3212 3213 3214 3216 3218 3219 3220 3221 3222 3222 3223 3223 3223 3224 3225 3225 3227 3228 3229
3167 3169 3171 3172 3174 3176 3178 3180 3182 3184 3186 3189 3191 3193 3195 3197 3198 3200 3201 3203 3204 3206 3207 3209 3210 3211 3213 3216 3217 3218 3219 3220 3220 3221 3221 3222 3222 3223 3223 3224 3226 3227
3164 3166 3168 3170 3172 3174 3176 3178 3179 3181 3183 3186 3188 3190 3192 3194 3195 3197 3199 3200 3202 3203 3205 3206 3207 3209 3211 3213 3215 3216 3217 3217 3218 3219 3219 3220 3220 3221 3221 3222 3223 3224
3161 3164 3166 3168 3170 3171 3173 3175 3176 3178 3180 3182 3184 3187 3189 3191 3192 3194 3196 3197 3199 3200 3202 3204 3205 3206 3208 3210 3212 3213 3214 3215 3216 3216 3217 3218 3218 3219 3219 3220 3221 3222
3158 3161 3163 3165 3167 3168 3170 3172 3174 3175 3177 3179 3181 3183 3185 3187 3189 3191 3193 3195 3196 3197 3199 3201 3203 3203 3205 3208 3210 3211 3212 3212 3213 3213 3214 3215 3216 3217 3217 3218 3219 3220
3156 3158 3160 3162 3163 3165 3167 3169 3171 3172 3174 3176 3178 3180 3182 3184 3186 3188 3189 3191 3193 3195 3196 3198 3200 3201 3202 3205 3207 3208 3209 3209 3210 3210 3211 3212 3214 3215 3215 3216 3217 3218
3153 3155 3157 3158 3160 3162 3164 3166 3168 3170 3172 3173 3176 3177 3179 3181 3183 3185 3186 3188 3190 3192 3193 3195 3196 3198 3200 3202 3204 3206 3206 3206 3207 3208 3208 3210 3211 3212 3213 3214 3214 3215
3150 3153 3154 3155 3157 3159 3161 3164 3166 3168 3169 3171 3173 3175 3176 3178 3180 3182 3184 3185 3187 3189 3190 3192 3193 3195 3197 3199 3201 3202 3203 3204 3204 3205 3205 3206 3208 3209 3210 3210 3211 3212
3148 3150 3151 3152 3154 3156 3158 3161 3163 3165 3167 3168 3170 3172 3174 3175 3177 3179 3180 3182 3184 3185 3187 3189 3190 3192 3193 3195 3197 3199 3200 3201 3201 3202 3202 3203 3205 3206 3207 3207 3208 3209
3145 3147 3148 3150 3151 3153 3155 3157 3160 3162 3164 3166 3168 3169 3171 3172 3174 3175 3177 3179 3181 3182 3183 3185 3187 3188 3190 3192 3194 3195 3197 3198 3198 3199 3199 3200 3202 3203 3204 3204 3205 3206
Wind_Speed
27 27 27 27 26 26 25 25 25 25 24 22 20 19 19 19 17 16 14 13 13 12 12 11 11 10 10 10 9 9 9 9 8 7 7 6 5 6 6 7 7 7
27 27 27 27 27 27 26 26 26 26 25 23 21 21 20 20 19 18 17 15 14 13 13 12 12 12 11 11 11 10 10 10 10 9 8 8 7 6 6 6 6 6
27 27 27 27 27 26 26 26 27 27 26 25 24 23 21 21 21 20 19 17 16 15 14 13 13 13 12 13 12 12 11 11 12 11 10 10 9 8 7 7 7 6
27 27 27 27 27 26 27 27 27 27 27 26 26 25 22 21 22 22 21 19 18 16 15 15 14 14 14 14 14 14 13 13 13 13 12 11 11 10 9 8 8 7
26 26 27 27 27 27 27 28 28 28 28 27 26 25 24 23 23 22 21 20 18 17 17 16 16 16 16 16 15 15 15 14 14 14 14 13 13 12 11 10 10 8
25 26 26 26 27 27 27 28 28 28 28 28 27 26 25 24 23 22 21 20 19 18 18 17 17 17 17 17 16 16 16 15 15 15 15 15 14 14 13 12 12 11
26 26 26 26 26 27 27 28 28 28 28 28 27 26 25 24 24 23 22 21 19 19 19 18 18 18 18 18 17 17 17 17 17 16 16 16 16 15 14 14 14 13
26 26 26 26 26 26 26 27 27 27 27 28 28 27 26 24 23 24 23 22 21 20 19 18 18 17 18 18 18 17 17 17 18 17 17 17 17 17 16 16 16 15
27 28 27 27 27 26 26 26 26 26 27 28 27 26 26 24 23 23 23 22 21 21 19 18 18 17 17 18 18 17 16 17 19 19 19 19 19 19 19 19 18 17
27 27 28 28 28 27 26 26 25 26 27 27 27 26 25 24 24 24 23 22 22 21 19 18 17 16 17 18 17 17 16 17 19 19 20 21 21 21 21 20 19 18
26 27 27 28 28 28 27 26 26 26 27 26 26 26 25 24 24 24 23 22 22 21 19 18 17 16 17 17 17 16 16 17 19 20 20 22 22 22 22 22 21 20
26 26 26 27 28 28 27 27 27 27 27 27 26 26 25 24 24 24 23 22 21 20 19 18 17 17 17 17 16 16 16 17 18 19 20 22 23 24 23 23 23 22
26 26 25 26 26 27 28 28 29 28 26 26 26 26 26 25 24 24 23 22 21 20 19 18 18 18 17 17 17 17 16 16 18 19 19 21 22 24 24 24 23 23
26 26 26 25 26 27 28 29 29 29 28 27 26 26 26 25 24 24 23 23 21 21 20 20 19 19 19 18 17 17 16 15 16 18 18 20 21 23 24 24 23 24
25 26 27 27 27 28 29 29 29 29 30 29 27 26 26 26 25 25 24 23 22 21 21 21 20 20 20 19 18 17 17 15 16 17 18 19 20 22 23 24 23 23
26 26 27 28 27 27 28 29 29 29 30 29 28 27 27 27 27 26 25 23 23 23 22 22 22 21 20 19 18 18 17 16 16 17 18 19 20 21 23 23 22 22
26 27 27 27 27 27 28 29 30 30 29 29 28 27 27 28 28 27 26 24 23 23 23 23 22 22 21 19 18 19 19 18 17 16 18 19 19 20 22 22 22 22
26 27 27 27 26 26 27 29 30 30 30 29 28 27 28 29 29 28 27 26 25 24 24 24 23 23 21 19 19 20 20 20 19 18 18 19 19 20 21 22 23 23
25 26 27 27 26 26 27 29 30 31 30 29 28 28 28 29 29 28 28 28 27 26 25 24 24 24 22 19 19 20 21 22 22 20 19 19 19 20 20 22 23 24
25 25 27 27 27 27 27 28 30 30 30 29 29 29 29 29 28 28 28 28 27 27 26 25 25 25 23 20 20 21 21 23 24 23 22 21 21 21 21 22 23 24
27 26 27 28 29 28 28 28 29 30 30 31 31 30 29 29 28 28 28 27 27 28 27 26 25 25 24 21 21 21 22 23 25 26 25 24 23 22 22 22 23 25
29 27 27 29 30 30 29 28 29 30 30 31 31 30 30 29 29 29 29 28 28 28 28 27 26 26 25 22 21 22 23 24 26 27 27 27 25 24 23 23 24 25
30 28 28 29 31 32 30 29 29 29 29 29 30 30 30 30 30 30 30 29 29 28 28 28 27 27 25 23 22 22 24 26 26 27 28 28 27 27 26 25 26 26
31 29 28 28 30 31 31 30 29 29 29 29 29 29 30 30 30 30 30 30 29 29 29 29 28 27 26 24 23 24 25 26 27 28 29 29 28 28 28 28 28 27
31 29 29 28 29 30 30 30 30 29 29 28 28 28 29 29 29 30 30 31 30 30 30 29 29 29 28 26 25 25 26 27 29 30 30 30 29 29 29 30 29 29
31 30 28 27 28 29 29 30 30 30 30 29 28 29 29 30 30 30 30 30 29 29 30 30 30 29 29 28 27 27 27 28 30 31 32 32 31 30 30 30 30 30
Wind_Direction
221 219 220 220 219 219 219 218 219 222 222 221 221 219 217 215 214 216 217 216 217 219 219 220 220 219 218 213 208 202 193 187 185 182 176 169 158 146 138 135 132 131
222 221 220 221 220 219 220 220 221 223 224 223 222 221 218 214 213 214 216 217 220 223 225 226 228 226 225 222 215 208 202 196 195 196 191 185 179 168 160 156 150 146
223 222 222 222 222 221 221 222 223 225 226 224 224 223 219 214 214 215 216 217 219 224 228 228 231 232 230 229 222 214 210 204 201 204 202 197 193 187 182 179 175 171
223 223 223 223 224 223 223 224 224 225 227 226 225 224 219 215 215 216 218 218 220 223 228 230 232 233 234 235 231 222 215 211 209 208 206 205 204 201 198 198 198 196
224 223 224 224 224 224 223 224 225 225 227 227 226 224 221 217 216 218 219 221 222 226 231 234 235 235 237 239 238 232 222 216 216 214 210 210 211 209 209 210 212 212
224 223 223 223 224 225 224 225 226 225 226 227 226 225 223 220 218 219 220 221 223 227 233 236 237 237 239 239 239 238 231 223 220 218 214 214 216 216 215 216 219 222
225 224 223 223 224 225 225 226 227 226 226 227 226 225 224 222 220 220 221 221 223 228 233 237 240 242 244 244 241 240 236 231 227 222 218 218 220 222 222 222 224 226
225 225 224 224 224 225 226 227 228 227 227 227 227 226 225 223 221 221 223 223 226 230 233 237 242 245 248 249 246 242 238 237 235 229 223 222 223 224 226 227 229 229
224 225 225 225 225 224 225 227 228 228 228 228 228 228 227 225 223 223 224 225 228 232 233 236 239 242 246 249 249 247 242 240 239 235 229 227 226 227 228 230 232 233
222 224 224 225 226 225 225 225 227 227 228 228 228 229 229 227 224 225 226 226 228 231 232 234 237 238 242 247 250 249 246 242 241 237 232 230 230 229 230 232 234 235
220 222 223 224 226 227 226 225 226 227 227 227 227 229 230 228 226 226 227 227 229 232 232 234 237 238 239 245 248 248 246 244 242 240 235 232 232 232 232 233 234 236
220 221 222 223 225 227 227 227 228 228 228 227 227 229 230 230 228 228 230 229 230 233 234 233 236 238 238 242 246 246 245 245 245 243 239 236 234 234 235 235 235 237
220 221 222 221 223 225 227 228 229 229 228 227 227 228 230 231 230 231 233 233 232 234 236 235 235 237 239 240 244 248 247 247 249 249 245 240 237 236 237 238 238 238
222 220 221 220 220 222 225 228 229 230 231 230 228 227 228 231 232 233 235 237 236 235 237 238 236 237 239 239 242 248 250 249 251 253 250 245 241 238 238 239 240 240
222 221 221 220 218 219 223 226 228 230 232 233 231 229 229 230 232 234 236 238 239 239 239 240 239 238 239 239 241 247 252 252 252 254 254 250 246 242 240 240 240 240
222 221 221 221 220 218 220 223 226 228 231 233 233 231 231 231 231 233 235 236 238 240 241 242 241 240 240 240 242 245 250 252 251 252 254 254 251 246 242 240 239 239
223 223 223 223 222 220 219 221 224 226 229 232 232 231 232 232 232 232 233 234 235 238 241 242 242 242 240 240 241 243 246 250 251 251 252 255 254 249 244 240 238 238
225 224 225 225 224 222 220 220 223 224 226 229 231 230 231 233 233 233 233 233 234 236 238 240 242 241 240 239 240 241 244 247 251 251 251 253 254 251 245 241 238 237
226 224 224 226 226 224 221 221 222 223 224 225 228 229 229 232 233 234 234 234 236 236 237 238 241 241 239 238 239 240 242 245 248 251 252 252 253 251 246 241 238 238
227 224 223 224 225 225 224 223 223 223 222 222 225 227 228 229 232 233 234 235 237 239 239 239 241 242 239 237 240 241 241 244 246 248 250 251 250 250 247 243 240 238
226 223 221 222 224 226 226 225 224 223 222 221 223 225 227 228 230 232 234 235 236 239 240 239 240 242 240 236 238 242 242 244 245 247 249 250 250 250 249 247 243 240
226 224 221 221 223 225 226 226 224 223 222 221 221 223 226 227 228 231 233 234 235 238 240 239 239 241 241 236 235 240 243 245 246 247 249 249 250 250 249 248 247 244
226 225 222 222 223 224 225 227 226 225 223 221 220 222 225 226 227 229 232 233 234 236 239 241 241 241 241 238 234 237 241 245 246 248 249 250 250 250 250 249 248 246
225 226 224 224 225 224 225 227 227 227 225 223 221 222 225 227 227 229 231 233 235 236 238 241 243 243 241 239 236 235 238 243 246 248 250 250 249 249 250 249 249 248
223 225 225 227 227 224 224 226 227 228 228 227 225 224 226 229 229 230 231 233 235 237 238 239 242 243 242 239 237 237 238 241 244 247 249 250 249 249 249 249 249 248
222 224 227 230 227 223 222 224 226 228 229 229 228 227 228 230 231 232 233 233 235 237 239 240 239 241 243 241 239 239 240 242 243 245 247 249 250 250 250 250 250 249